Regional Weather Roundup
Issued by NWS

Home | Current Version | Previous Version | Text Only | Print | Product List | Glossary On
Versions: 1 2 3 4 5 6 7 8 9 10 11 12 13 14 15 16 17 18 19 20 21 22 23 24 25 26 27 28 29 30 31 32 33 34 35 36 37 38 39 40 41 42 43 44 45 46 47 48 49 50
000
ASUS42 KFFC 260710
RWRGA
WEATHER ROUNDUP FOR GEORGIA
NATIONAL WEATHER SERVICE PEACHTREE CITY GA
300 AM EDT SUN MAR 26 2017

NOTE: "FAIR" INDICATES FEW OR NO CLOUDS BELOW 12,000 FEET WITH NO
SIGNIFICANT WEATHER AND/OR OBSTRUCTIONS TO VISIBILITY.

* = USE WITH CAUTION. THE STATIONS MARKED WITH AN ASTERISK MAY NOT
REPORT WEATHER SUCH AS PRECIPITATION, FOG, OR THUNDER AND ARE NOT
QUALITY CONTROLLED BY NWS.

THE REMARK "TC" DENOTES TEMPERATURE READING IN DEGREES CELSIUS.

GAZ001>058-260800-
NORTH GEORGIA

CITY           SKY/WX    TMP DP  RH WIND       PRES   REMARKS
ATLANTA        LGT RAIN  60  59  96 S10       30.11S
ATHENS         CLOUDY    62  55  77 S7        30.13F
CHAMBLEE       RAIN      59  57  93 W7        30.11F FOG
PEACHTREE CITY LGT RAIN  61  60  97 SE5       30.11F
ROME           LGT RAIN  60  58  92 CALM      30.05S
WEST ATLANTA   LGT RAIN  60  57  89 CALM      30.10F
GAINESVILLE    LGT RAIN  59  56  89 SE9       30.13F
CARTERSVILLE   LGT RAIN  60  57  89 S8        30.08F


CITY           SKY/WX    TMP DP  RH WIND       PRES   REMARKS
DALTON*        LGT RAIN  59  59 100 SE6       30.06F
MARIETTA       LGT RAIN  59  57  93 S5        30.11S FOG
CANTON*        RAIN      59  55  88 CALM      30.12F
$$

GAZ059>098-102>109-260800-
CENTRAL GEORGIA

CITY           SKY/WX    TMP DP  RH WIND       PRES   REMARKS
AUGUSTA-BUSH   CLEAR     57  54  89 CALM      30.18F
AUGUSTA-DANIEL PTCLDY    61  52  72 SE5       30.18F
COLUMBUS       LGT RAIN  63  58  83 S7        30.10F
MACON          CLOUDY    64  55  72 S8        30.13F
ROBINS AFB     CLOUDY    64  56  76 S7        30.12F


CITY           SKY/WX    TMP DP  RH WIND       PRES   REMARKS
LAGRANGE*      LGT RAIN  62  62 100 SE6       30.09F
SYLVANIA*      PTCLDY   N/A N/A N/A CALM      30.19S
MILLEDGEVILLE* CLOUDY    64  59  82 SE3       30.14F
$$

GAZ099>101-110>166-260800-
SOUTH GEORGIA

CITY           SKY/WX    TMP DP  RH WIND       PRES   REMARKS
SAVANNAH       CLEAR     62  55  77 SE6       30.18S
VALDOSTA       PTCLDY    58  56  93 CALM      30.15F
ALMA           CLOUDY    62  59  90 E3        30.16F
ST SIMONS      CLEAR     65  60  84 SE7       30.15F
FT STEWART     PTCLDY    57  55  92 CALM      30.16R
ALBANY         LGT RAIN  64  58  80 S3        30.15S
HUNTER AFB     CLEAR     62  58  87 CALM      30.15F
MOODY AFB      MOCLDY    61  57  84 SE3       30.13F
BRUNSWICK      CLEAR     66  63  88 SE3       30.17S


CITY           SKY/WX    TMP DP  RH WIND       PRES   REMARKS
BAINBRIDGE*    MOCLDY    64  59  82 CALM      30.13F
MOULTRIE*      CLOUDY    63  55  77 CALM      30.14F
VIDALIA*       CLOUDY    64  59  82 SE3       30.17F
WAYCROSS*      CLOUDY    64  64 100 CALM      30.17S
DOUGLAS*       MOCLDY    61  55  82 CALM      30.17F
$$




USA.gov is the U.S. government's official web portal to all federal, state and local government web resources and services.